Location: Earls Croome
(52.0667°N, 2.2000°W)
Time: 20:20:38
(UTC+00:00)

NOSS 3-4 (C) - Pass Details

Date: 17 November 2019
Orbit: 908 x 1304 km, 63.4° (Epoch: 02 December)

Event Time Altitude Azimuth Distance (km) Brightness Sun altitude
Exits shadow 06:28:38 10° 305° (NW) 2,919 5.4 -9.6°
Maximum altitude 06:34:56 38° 241° (WSW) 1,685 4.5 -8.7°
Drops below altitude 10° 06:41:49 10° 176° (S) 3,177 6.5 -7.7°
Sets 06:44:53 0° 169° (S) 4,186 7.3 -7.3°
